Flag for Tunisia Weather past 2 weeks in Houmt Souk (Djerba), Tunisia

Now
91 °F

Sunny.


Feels Like: 93 °F
Forecast: 79 / 92 °F
Wind: 5 mph from North

Location: Djerba Mellita

Current Time: Jul 24, 2014 at 11:57:57 AM

Latest Report: Jul 24, 2014 at 11:30 AM


Visibility: 10 mi

Pressure: 29.89 "Hg

Humidity: 41%

Dew point: 64 °F

Location of Houmt Souk (Djerba)Location

Historic Weather in Houmt Souk (Djerba) — Graph

°F

Houmt Souk (Djerba) temperature yesterday

Maximum temperature yesterday: 88 °F (at 10:00 AM)
Minimum temperature yesterday: 72 °F (at 5:00 AM)
Average temperature yesterday: 81 °F

Past Weeks' High & Low Weather Summary

 TemperatureHumidityPressure
High102 °F (Jul 20, 1:00 PM)94% (Jul 15, 4:30 AM)30.07 "Hg (Jul 15, 4:30 AM)
Low70 °F (Jul 19, 5:30 AM)17% (Jul 20, 1:00 PM)29.80 "Hg (Jul 10, 2:30 AM)
Average82 °F62%29.96 "Hg
* Reported Jul 9 10:00 AM — Jul 24 10:30 AM, Houmt Souk (Djerba), Weather by CustomWeather, © 2014

Note: Actual official high and low records may vary slightly from our data, if they occured in-between our weather recording intervals... More about our weather records

Advertising

Houmt Souk (Djerba) weather history for previous 24 hours

 ConditionsComfort  
Time TempWeatherWind HumidityBarometerVisibility
10:30 AM
Jul 24
91 °FPassing clouds.8 mph41%29.89 "HgN/A
10:00 AM88 °FPassing clouds.8 mph46%29.89 "HgN/A
9:30 AM88 °FPassing clouds.9 mph46%29.89 "HgN/A
9:00 AM86 °FPassing clouds.8 mph52%29.89 "HgN/A
8:30 AM84 °FSunny.9 mph58%29.89 "Hg10 mi
8:00 AM82 °FPassing clouds.7 mph66%29.89 "HgN/A
7:30 AM81 °FPassing clouds.8 mph70%29.89 "HgN/A
6:30 AM79 °FPassing clouds.6 mph79%29.89 "Hg5 mi
6:00 AM77 °FPassing clouds.6 mph79%29.89 "Hg5 mi
5:30 AM75 °FPassing clouds.3 mph83%29.89 "Hg5 mi
5:00 AM75 °FClear.3 mph83%29.86 "Hg5 mi
4:30 AM75 °FClear.6 mph83%29.86 "Hg5 mi
4:00 AM75 °FClear.5 mph83%29.86 "Hg5 mi
3:30 AM77 °FClear.3 mph79%29.86 "Hg5 mi
2:30 AM77 °FClear.5 mph79%29.86 "Hg5 mi
1:30 AM77 °FClear.5 mph79%29.86 "Hg5 mi
1:00 AM79 °FClear.6 mph74%29.89 "Hg5 mi
12:30 AM79 °FClear.5 mph74%29.89 "Hg5 mi
12:00 AM79 °FPassing clouds.3 mph74%29.89 "HgN/A
11:30 PM
Jul 23
79 °FClear.2 mph74%29.92 "Hg10 mi
11:00 PM79 °FClear.3 mph74%29.89 "Hg10 mi
10:30 PM79 °FClear.6 mph74%29.89 "Hg10 mi
10:00 PM79 °FClear.7 mph74%29.89 "Hg10 mi
9:30 PM81 °FClear.10 mph70%29.89 "Hg10 mi
9:00 PM81 °FClear.12 mph70%29.89 "Hg10 mi
8:30 PM81 °FClear.12 mph66%29.86 "Hg10 mi
8:00 PM81 °FClear.14 mph66%29.86 "Hg10 mi
7:30 PM82 °FClear.14 mph58%29.86 "Hg10 mi
7:00 PM84 °FSunny.14 mph51%29.86 "Hg10 mi
6:30 PM86 °FSunny.15 mph52%29.83 "Hg10 mi
6:00 PM86 °FSunny.13 mph49%29.83 "Hg10 mi
5:30 PM86 °FSunny.14 mph52%29.83 "Hg10 mi
5:00 PM86 °FSunny.15 mph49%29.83 "Hg10 mi
4:30 PM86 °FSunny.15 mph49%29.86 "Hg10 mi
4:00 PM86 °FPassing clouds.16 mph49%29.86 "HgN/A
3:30 PM86 °FSunny.16 mph52%29.86 "Hg10 mi
3:00 PM86 °FSunny.15 mph52%29.86 "Hg10 mi
2:00 PM86 °FSunny.14 mph49%29.86 "Hg10 mi
1:30 PM86 °FPassing clouds.13 mph46%29.86 "HgN/A
1:00 PM88 °FPassing clouds.10 mph46%29.89 "HgN/A
12:30 PM86 °FPassing clouds.13 mph46%29.89 "HgN/A
12:00 PM86 °FSunny.13 mph49%29.89 "Hg10 mi
11:30 AM86 °FSunny.12 mph52%29.89 "Hg10 mi
11:00 AM88 °FSunny.12 mph46%29.92 "Hg10 mi
Weather by CustomWeather, © 2014

See weather overviewHow to use our weather pages